GFSNIL_925_spd_000.txt.gz
Wind_Speed
9 8 11 17 20 16 7 3 4 5 6 9 12 13 14 15 14 16 18 18 18 21
14 16 19 21 13 10 8 3 3 6 10 12 15 14 13 13 14 14 16 18 19 20
10 14 14 16 12 10 6 2 5 10 12 10 11 13 12 13 13 15 15 15 14 13
21 19 15 8 6 4 3 6 6 9 7 8 9 9 10 11 9 9 6 8 12 17
22 21 16 10 9 11 10 3 7 8 9 10 9 9 10 13 8 6 6 10 15 20
27 27 26 15 8 3 2 12 21 8 8 11 13 15 13 7 4 5 8 14 18 19
29 26 17 4 4 8 9 13 20 7 11 15 14 14 11 8 6 9 16 20 17 19
23 20 14 16 18 15 16 11 8 9 14 14 15 13 9 6 12 18 18 20 17 18
21 19 14 14 14 14 15 8 7 16 14 12 10 10 9 16 16 16 17 15 17 19
20 18 18 17 14 18 12 14 16 11 5 7 6 11 14 15 14 15 14 16 18 19
18 20 19 11 13 11 14 17 8 2 3 7 9 11 11 11 14 14 14 17 18 21
18 18 16 16 20 16 21 7 2 2 5 7 9 10 10 11 12 14 19 21 20 19
16 18 20 21 23 20 7 1 5 5 7 9 10 11 10 12 18 19 18 18 18 17
16 15 14 11 7 7 2 7 5 6 7 9 13 13 12 15 16 17 17 18 17 20

GFSNIL_925_spd_006.txt.gz
Wind_Speed
10 12 15 18 22 26 26 24 20 9 6 6 9 9 7 7 7 7 9 10 11 11
16 16 18 21 23 26 24 22 12 10 3 15 5 8 11 12 10 10 12 13 13 15
17 19 20 22 25 26 21 10 8 4 7 4 6 12 14 11 11 14 14 13 13 12
15 17 21 24 24 22 16 9 10 8 11 10 13 11 11 12 14 15 14 12 12 13
13 16 20 22 21 18 11 12 12 13 12 17 14 11 12 13 15 14 13 13 12 17
13 17 19 21 20 18 15 11 12 16 15 10 12 12 12 14 15 13 12 13 18 20
14 17 20 22 20 19 19 20 18 15 13 12 12 13 13 12 10 12 15 19 20 21
15 19 22 22 21 19 18 16 17 19 10 9 12 11 8 8 12 16 19 21 22 22
17 19 23 24 21 18 14 13 10 9 10 9 4 4 7 11 15 19 20 22 19 21
17 20 24 22 19 16 14 17 13 16 9 1 5 8 10 14 16 17 17 18 22 21
18 22 25 22 19 18 17 16 13 10 2 3 6 10 14 16 16 17 19 18 17 19
17 22 24 21 19 18 16 12 7 5 2 4 6 10 12 12 15 16 17 16 18 16
17 22 20 18 17 12 7 6 8 6 1 3 6 9 11 10 12 15 17 20 17 15
19 21 17 16 14 13 10 8 7 4 2 4 6 8 9 9 11 15 16 18 19 18

GFSNIL_925_spd_009.txt.gz
Wind_Speed
11 11 12 15 17 19 20 20 22 14 11 7 3 3 6 8 6 5 6 8 8 9
11 12 14 18 22 23 24 22 16 9 10 5 4 9 7 9 9 8 9 10 10 11
11 14 18 21 23 23 22 19 10 10 9 8 13 7 10 9 9 11 11 12 11 12
11 14 16 20 22 22 20 17 10 12 10 10 12 12 10 10 11 12 12 11 10 12
8 11 15 18 20 20 18 14 10 9 10 16 17 14 11 12 11 12 12 10 10 13
8 11 14 18 19 18 16 14 12 16 19 16 14 11 11 13 12 10 9 10 12 15
9 13 15 18 19 18 17 15 14 15 17 16 12 8 11 10 7 8 9 12 14 16
12 14 16 21 21 19 16 11 12 12 8 6 7 6 4 5 7 11 14 15 16 16
15 16 17 21 21 18 14 11 12 10 8 5 5 5 7 8 9 12 13 15 16 17
17 18 17 21 19 15 13 12 10 10 7 5 4 5 9 13 9 11 13 14 15 15
19 18 17 20 17 14 14 12 10 8 6 3 1 6 11 15 10 11 12 13 13 15
19 18 15 16 16 16 12 9 7 5 5 2 1 7 11 12 9 11 13 13 13 14
18 15 14 16 16 14 11 10 7 6 5 3 4 8 10 10 9 11 14 13 13 12
15 15 17 15 13 13 11 9 8 7 6 5 6 7 8 8 8 10 13 14 14 13

GFSNIL_925_spd_012.txt.gz
Wind_Speed
9 8 7 9 12 14 16 18 19 18 14 10 8 6 7 11 8 8 9 10 12 14
7 7 7 10 13 15 16 18 18 15 10 8 6 9 11 10 9 8 10 12 14 16
4 6 7 11 14 16 17 18 17 14 11 9 9 11 12 12 9 9 12 13 14 17
3 5 7 10 14 15 17 17 16 14 13 12 15 16 19 15 11 12 13 15 17 18
3 4 7 10 14 16 17 17 15 14 12 14 18 22 17 12 12 14 16 17 17 18
4 6 8 11 14 16 16 16 14 14 15 17 18 16 13 12 13 14 14 14 16 19
7 8 10 12 14 16 16 14 13 13 13 15 14 11 9 9 9 9 12 15 17 19
9 10 12 13 15 16 15 14 12 11 9 8 5 3 3 7 9 12 15 16 17 16
11 12 13 15 15 17 15 13 12 13 9 9 6 8 7 6 10 12 15 15 15 15
10 12 15 15 15 17 15 13 14 13 10 10 5 6 7 9 10 12 13 13 14 15
12 14 15 15 15 16 14 13 11 11 9 7 5 5 7 11 9 11 11 12 12 14
11 14 15 15 15 16 14 12 12 9 7 7 6 6 8 9 9 10 11 11 11 12
12 14 15 15 16 15 12 11 10 8 7 8 6 6 7 8 8 9 11 11 12 10
12 12 13 15 14 12 12 10 8 8 8 8 7 7 7 8 6 8 11 12 13 12

GFSNIL_925_spd_015.txt.gz
Wind_Speed
6 4 3 4 6 7 9 11 14 15 16 15 12 7 7 13 14 12 13 11 13 14
6 6 1 3 5 7 9 12 14 15 15 13 10 8 12 12 13 15 11 11 14 14
6 3 1 4 6 8 10 12 14 15 15 15 12 14 13 15 19 14 14 10 13 16
5 4 4 5 7 9 12 13 14 15 15 15 15 15 18 22 20 15 17 11 14 17
6 5 6 7 8 10 12 13 15 14 14 15 14 17 19 17 16 13 14 15 17 17
8 8 9 10 10 11 13 14 14 14 14 16 14 17 15 15 14 13 14 15 15 18
9 10 11 11 11 12 13 15 14 13 12 13 13 13 12 10 10 12 14 15 16 20
9 11 12 13 13 13 14 14 14 14 10 11 11 7 7 10 13 16 16 16 18 18
10 12 13 13 14 14 15 14 15 14 11 10 11 8 10 8 9 13 15 17 16 16
11 12 12 14 15 15 15 15 15 14 12 11 7 8 6 6 9 12 14 14 14 14
11 12 13 15 16 16 15 15 14 12 10 11 6 9 7 7 9 12 12 12 12 13
10 13 14 15 16 15 15 15 14 12 9 11 7 9 8 7 9 11 11 11 11 10
11 14 16 16 15 16 15 14 12 11 9 10 6 10 11 7 7 10 10 11 10 10
12 14 14 14 15 15 13 13 10 8 10 9 8 9 11 9 7 8 10 10 11 9

GFSNIL_925_spd_021.txt.gz
Wind_Speed
16 14 11 10 8 6 3 1 5 6 9 10 11 12 13 13 11 13 9 10 10 10
12 11 13 10 7 6 2 1 4 7 9 10 12 11 12 11 10 11 11 10 11 12
12 13 11 9 8 4 2 4 5 7 9 12 13 11 10 7 7 9 15 12 10 5
12 13 11 10 8 6 4 4 5 8 10 13 15 10 7 8 11 11 13 7 6 7
14 16 12 11 8 7 7 5 6 8 11 12 7 10 14 13 13 10 2 2 5 4
17 16 14 10 9 8 8 8 9 9 11 14 12 13 9 6 4 4 5 5 6 7
20 20 17 10 6 7 10 10 9 13 13 16 15 11 9 8 4 5 6 8 6 8
19 20 13 5 4 4 7 10 15 16 17 14 14 12 11 10 10 8 7 7 9 10
17 14 9 3 9 14 12 16 19 18 15 15 14 13 13 12 10 6 6 6 10 11
16 10 6 10 8 12 15 17 15 15 13 13 12 13 11 10 8 7 6 6 10 10
10 9 8 9 14 13 15 17 14 14 14 15 14 10 10 11 9 7 6 7 10 10
9 9 6 11 12 15 14 14 14 15 16 12 11 10 12 11 9 7 8 9 10 9
11 4 9 10 14 14 15 17 17 16 11 10 9 10 12 12 10 10 8 9 9 10
3 7 11 12 11 14 18 18 19 17 14 15 14 12 13 14 14 12 10 11 12 10

GFSNIL_925_spd_024.txt.gz
Wind_Speed
28 27 22 17 14 11 9 5 3 3 6 7 8 8 7 9 10 6 5 6 9 9
20 17 15 13 10 10 6 3 2 4 6 8 10 10 10 9 10 10 10 12 14 13
17 14 13 11 9 7 4 2 3 4 7 9 11 9 12 7 8 9 11 11 11 11
19 17 14 12 11 8 5 5 7 5 6 9 10 11 6 7 11 12 12 9 6 8
21 18 17 15 14 12 10 8 9 6 7 9 10 10 10 10 10 12 7 5 5 6
23 23 22 18 18 16 13 11 10 9 9 9 10 13 15 13 11 6 5 4 5 6
25 25 23 21 19 16 13 12 11 10 13 13 13 16 16 15 11 8 7 6 5 6
26 24 24 18 15 10 7 4 9 14 17 17 16 16 19 17 14 12 8 6 7 8
26 25 21 17 9 6 5 8 14 18 21 19 19 17 19 17 15 12 10 9 10 11
23 26 19 14 9 7 6 12 16 18 17 16 15 16 18 17 14 13 12 11 10 10
27 21 16 14 10 3 11 15 16 15 15 17 16 16 18 16 15 14 13 11 11 12
19 19 13 8 5 5 10 12 13 15 17 18 18 15 17 18 17 15 13 11 12 13
16 12 9 3 7 12 8 12 15 17 16 15 14 14 16 18 18 16 15 13 12 13
7 8 3 8 10 9 12 15 16 17 18 16 19 20 18 19 20 20 17 16 14 13

GFSNIL_925_spd_027.txt.gz
Wind_Speed
27 31 31 29 23 19 15 10 6 1 9 2 2 3 6 6 6 5 5 7 8 10
27 31 32 25 21 19 14 10 5 2 4 3 3 4 4 4 6 7 8 10 12 13
32 32 29 27 24 21 19 10 12 8 7 4 4 6 7 7 5 7 11 12 12 14
33 30 28 26 23 21 14 15 12 9 6 5 6 7 6 5 7 9 10 10 9 8
32 30 28 26 23 20 18 14 12 8 7 7 7 8 8 10 12 11 12 10 8 8
32 31 30 27 24 22 19 16 14 10 8 9 10 10 10 14 16 15 13 12 11 10
34 33 30 27 24 23 21 18 15 11 11 12 14 14 14 16 18 16 13 14 14 13
34 32 28 26 23 21 18 14 10 9 11 16 17 18 19 18 20 19 16 15 13 13
31 26 23 17 14 13 11 7 5 8 15 16 17 17 18 18 22 21 18 17 15 14
20 16 17 19 18 13 7 1 9 13 18 17 15 15 17 18 23 21 19 18 17 15
19 26 22 18 12 4 6 9 11 14 13 14 16 17 17 17 21 21 20 19 17 15
29 23 15 7 5 11 9 8 12 14 17 18 21 19 18 18 21 22 21 19 17 16
15 9 7 8 11 7 9 13 14 17 18 18 18 15 15 18 22 23 22 21 20 18
5 8 13 12 9 10 14 16 17 19 19 17 17 19 19 22 25 25 25 25 23 21

GFSNIL_925_spd_030.txt.gz
Wind_Speed
29 29 31 37 35 33 29 24 18 12 4 2 6 2 3 4 6 7 6 7 9 10
30 32 36 39 36 32 26 23 19 8 6 3 4 3 4 5 8 9 9 10 11 13
32 34 37 35 35 30 25 23 17 10 9 8 5 3 7 9 10 12 11 11 12 12
34 33 32 35 33 30 27 24 13 14 13 9 7 5 7 10 11 12 11 10 12 12
31 30 30 35 33 31 28 18 17 16 14 11 10 8 9 10 12 14 14 13 11 12
31 32 34 33 32 29 24 22 21 19 15 12 10 9 12 13 14 16 17 17 15 14
35 35 34 32 29 27 24 23 21 18 14 10 10 12 15 17 19 20 20 19 18 16
30 29 27 25 25 24 23 20 17 14 11 8 12 18 21 23 24 24 22 20 20 19
24 25 22 21 21 21 20 17 12 7 4 14 19 20 21 20 22 22 24 24 23 21
16 16 16 17 19 19 17 11 6 0 12 20 18 20 18 18 21 23 25 27 24 22
14 16 19 21 17 12 7 8 7 11 11 14 21 20 21 21 21 22 25 26 24 23
21 25 21 15 8 8 11 11 10 12 14 19 22 21 20 19 20 22 23 25 24 23
19 15 9 8 2 6 14 15 15 16 17 20 23 21 20 19 20 21 24 25 24 24
8 2 5 11 15 15 11 14 17 20 21 20 17 17 17 17 22 24 26 28 28 26

GFSNIL_925_spd_033.txt.gz
Wind_Speed
29 30 30 34 35 36 36 27 28 23 16 12 10 8 11 8 8 7 7 6 7 6
28 30 35 34 34 37 32 29 29 24 18 14 12 13 9 8 7 7 9 8 8 9
31 33 33 32 32 34 33 31 29 25 20 15 15 12 9 8 7 9 10 9 10 11
30 31 34 32 33 34 32 32 31 26 20 19 17 13 9 8 6 12 12 14 13 12
29 30 31 30 29 31 33 33 31 22 20 17 13 10 7 7 10 15 15 16 15 15
24 25 24 24 26 30 36 34 30 24 23 20 16 14 9 8 18 19 19 18 17 16
15 16 17 19 24 29 31 32 27 27 22 17 15 10 7 13 19 22 23 22 21 19
14 14 14 16 20 23 25 26 24 24 21 14 9 5 15 18 19 21 24 25 24 23
9 11 13 13 13 15 17 16 17 9 5 3 2 16 21 20 23 21 21 20 21 24
6 8 8 9 11 12 14 14 11 6 2 14 20 21 19 21 21 20 20 21 20 20
8 10 11 14 19 19 15 10 7 9 14 19 21 22 16 24 25 23 24 24 23 21
14 18 20 20 15 11 5 5 8 14 17 18 20 18 22 24 23 23 23 22 23 22
17 15 13 10 5 1 5 11 16 16 16 16 20 22 20 17 19 20 20 21 23 24
10 8 5 3 6 7 8 8 12 16 18 20 22 23 23 21 21 21 21 19 20 22

GFSNIL_925_spd_036.txt.gz
Wind_Speed
24 24 24 26 28 35 35 34 28 24 21 19 20 17 14 11 14 10 11 11 10 8
26 25 24 23 28 33 29 24 23 24 23 24 18 16 14 12 12 11 11 10 10 10
20 22 23 22 24 26 23 24 23 24 24 22 22 17 15 13 12 11 11 10 10 10
19 20 21 22 22 24 23 25 26 25 25 27 18 18 16 12 8 10 10 12 12 12
17 19 20 21 19 19 20 22 25 25 24 23 18 15 14 11 6 9 10 15 15 16
16 15 16 14 14 15 18 20 21 21 21 20 18 16 12 7 7 12 14 17 17 19
10 10 11 12 13 14 16 17 19 19 15 12 12 11 10 5 12 14 16 20 23 23
6 8 9 9 9 11 13 16 20 20 17 20 17 12 9 16 15 16 19 22 25 26
6 6 6 8 10 11 14 15 21 18 17 10 12 14 19 19 22 20 22 23 23 24
7 7 8 9 10 12 15 17 18 14 11 15 15 17 23 25 26 21 22 24 24 25
10 10 11 12 13 13 13 14 13 10 12 15 19 21 26 22 20 22 25 24 25 26
14 15 14 14 13 11 9 7 6 8 10 12 20 19 16 18 19 21 23 22 24 25
15 14 12 9 7 4 1 1 5 10 12 11 12 15 19 19 17 22 23 24 24 24
12 10 8 5 3 1 3 2 5 7 9 11 13 15 17 18 17 20 25 27 28 27

GFSNIL_925_spd_039.txt.gz
Wind_Speed
25 34 32 27 24 23 24 23 29 29 27 23 19 18 17 15 10 10 12 11 10 11
31 30 27 25 23 25 26 29 31 29 28 23 21 23 19 15 14 13 13 12 12 11
18 23 24 23 26 24 22 24 25 28 29 25 25 19 17 13 11 12 12 11 8 10
19 21 22 22 21 23 19 22 22 24 23 24 19 19 16 13 11 13 8 5 9 15
21 18 20 21 21 21 21 21 23 21 22 21 19 20 18 14 14 9 4 5 17 20
21 18 16 16 17 15 17 17 18 19 22 21 20 17 17 14 10 3 9 17 16 20
7 8 8 8 10 13 14 16 16 19 19 19 18 19 15 15 9 15 14 13 17 22
8 8 8 8 9 10 11 11 15 17 17 17 16 17 15 15 18 15 15 19 21 25
9 8 8 7 7 8 10 12 14 14 17 19 17 18 18 18 18 13 15 22 24 25
11 11 10 10 10 10 10 12 14 19 17 18 17 17 18 18 14 25 28 27 25 25
12 12 11 11 11 11 11 13 14 14 11 7 7 11 13 19 24 20 19 21 24 26
14 15 14 13 13 11 10 9 8 5 4 7 11 14 17 12 13 18 21 22 23 25
15 15 14 12 11 9 8 7 4 4 6 10 7 8 7 9 13 17 20 22 24 26
13 13 11 10 8 6 5 5 3 2 2 3 5 6 5 8 9 14 19 22 24 25

GFSNIL_925_spd_042.txt.gz
Wind_Speed
37 39 34 31 28 32 30 30 25 28 31 29 29 23 19 20 20 16 15 12 9 11
35 35 31 29 29 30 29 26 26 28 30 30 26 23 25 25 18 14 14 12 12 8
30 25 25 21 25 25 23 27 27 29 28 29 25 26 27 22 17 17 13 10 9 5
23 18 18 20 20 21 25 26 25 25 25 26 28 27 24 20 17 16 13 12 7 4
26 20 20 18 19 21 24 23 17 18 21 23 27 24 19 19 14 14 16 8 4 10
22 22 19 20 22 21 20 18 15 20 23 26 23 19 20 20 16 17 12 9 17 17
20 20 17 17 18 18 17 17 19 20 21 18 21 21 20 17 21 15 14 19 14 15
19 16 13 12 13 14 15 16 16 17 18 20 21 19 19 21 19 16 17 15 15 17
17 13 12 12 12 12 13 14 15 17 21 20 18 20 20 17 16 13 16 15 18 26
17 18 17 16 15 14 14 14 16 16 17 16 15 15 15 13 15 12 12 19 28 23
17 17 15 15 15 14 14 14 15 13 12 10 10 7 10 10 12 15 18 17 19 21
18 18 17 17 16 16 15 14 13 10 9 8 7 5 7 9 7 9 12 14 16 19
19 18 19 18 17 16 15 14 12 8 6 6 4 6 8 5 3 7 11 17 22 26
19 19 18 17 14 13 10 9 9 7 6 5 9 7 4 2 5 9 15 17 19 20

GFSNIL_925_spd_045.txt.gz
Wind_Speed
46 41 39 39 40 34 34 31 33 32 28 24 26 28 25 24 25 22 24 20 18 16
48 35 35 40 37 34 32 32 30 30 28 24 27 29 29 28 26 28 23 22 18 16
42 39 34 33 32 31 28 27 29 29 28 28 30 29 28 24 26 25 20 15 15 13
41 45 34 28 28 26 25 27 28 29 29 30 29 27 25 25 25 20 16 15 14 10
33 30 21 25 26 22 23 26 28 28 26 24 25 26 25 25 22 19 18 17 13 10
31 31 38 36 27 24 23 25 26 22 20 18 20 22 24 23 21 20 21 16 12 11
30 31 30 28 25 22 20 21 21 19 18 19 20 22 23 22 19 18 13 17 13 10
26 24 26 22 21 20 18 19 18 18 19 21 21 22 23 22 21 15 18 14 13 16
27 25 23 21 20 18 17 17 17 18 19 19 19 21 19 16 17 16 9 10 14 13
25 23 20 19 18 17 17 16 16 16 19 20 19 16 13 16 14 9 9 10 12 17
28 26 23 21 20 18 17 18 18 19 18 17 17 16 14 12 10 9 9 9 7 6
29 27 24 23 22 20 20 19 18 17 17 16 14 12 12 10 8 5 4 4 7 11
27 29 27 25 24 22 22 22 19 17 17 15 13 10 11 10 9 7 6 9 13 13
27 27 26 25 24 23 23 23 17 15 13 15 14 14 14 10 6 3 6 9 11 13

GFSNIL_925_spd_048.txt.gz
Wind_Speed
44 37 41 42 39 42 41 40 35 33 32 31 30 30 29 29 30 29 27 27 20 23
40 40 37 42 41 42 42 40 36 35 32 29 30 29 30 29 28 28 28 21 21 16
40 38 36 39 44 45 43 43 37 34 29 30 30 28 28 30 29 27 22 21 19 17
46 42 38 36 41 42 43 40 37 34 29 29 30 30 27 29 28 24 21 22 21 20
31 34 32 34 34 25 31 37 34 28 25 28 31 27 28 28 25 24 26 25 23 17
30 34 38 32 32 40 37 32 30 26 27 27 25 25 27 27 26 28 27 25 19 21
34 37 37 40 39 41 42 34 30 28 27 26 25 25 26 26 27 25 23 19 20 18
36 38 40 37 37 34 36 33 31 28 24 23 23 24 24 25 24 23 21 20 18 15
31 34 33 30 28 30 28 27 26 25 24 23 23 22 22 25 24 22 20 17 12 9
28 29 30 32 31 29 26 25 25 23 23 22 21 20 21 19 20 18 15 9 7 8
27 27 28 29 29 27 25 24 21 21 21 21 21 20 19 17 18 14 10 7 7 7
29 28 27 25 25 23 22 19 19 20 21 22 23 20 19 18 15 12 9 7 5 4
29 29 28 27 28 24 23 24 24 22 19 20 22 19 18 16 14 13 10 7 5 6
27 27 27 26 24 24 25 26 25 23 21 20 19 18 15 13 14 12 9 5 4 5

GFSNIL_925_spd_051.txt.gz
Wind_Speed
40 37 37 35 36 38 40 42 43 40 38 35 37 27 28 35 33 31 34 34 30 28
42 41 38 37 38 39 40 42 44 43 38 38 43 39 37 31 33 34 34 32 30 26
41 40 41 36 37 42 43 41 41 42 41 38 35 34 32 32 31 30 28 31 27 23
40 38 35 37 40 40 39 39 40 39 39 41 35 35 32 32 30 28 30 28 26 26
39 35 35 38 37 39 43 39 36 32 42 44 38 36 34 34 31 29 31 29 28 28
38 37 40 41 44 43 42 44 39 39 38 38 35 34 36 33 29 29 30 30 30 28
42 41 39 42 36 44 45 43 41 37 33 32 30 34 33 29 28 28 28 28 26 22
39 37 33 37 39 40 39 41 41 38 31 31 31 32 27 26 27 26 23 23 21 20
34 35 35 36 32 33 36 36 32 32 34 34 29 27 25 25 23 23 25 26 22 19
32 32 28 29 29 30 29 29 29 31 30 27 26 25 20 20 23 24 25 24 20 16
29 26 27 28 29 29 28 28 28 25 24 23 21 20 20 21 22 21 20 18 16 15
27 26 26 26 26 27 26 22 21 20 20 20 19 19 21 22 22 22 18 15 12 10
24 25 23 23 22 21 21 20 19 18 17 18 23 20 20 22 23 20 17 13 9 8
21 23 24 24 22 21 20 21 21 20 18 21 22 21 18 18 18 18 15 10 8 5

GFSNIL_925_spd_054.txt.gz
Wind_Speed
42 43 42 41 40 41 40 41 43 44 44 42 38 36 35 34 31 30 33 36 33 37
43 41 36 37 40 44 45 43 38 35 35 36 38 36 32 37 36 37 36 32 34 33
38 37 35 31 35 35 37 39 38 35 34 37 40 38 39 44 42 43 35 33 33 30
38 37 38 38 37 36 37 38 38 37 36 38 37 36 35 40 38 39 36 33 30 29
32 35 39 40 39 40 42 41 41 39 39 40 38 34 33 35 37 36 34 31 29 27
38 38 39 40 42 37 40 42 42 43 41 41 35 36 35 34 35 34 34 33 31 29
40 44 44 42 37 40 39 40 39 43 43 40 40 39 35 31 34 35 35 32 29 30
42 38 36 38 39 36 37 41 39 41 38 39 41 40 33 32 35 35 31 29 27 25
32 33 37 37 38 37 38 37 37 38 37 36 37 37 33 32 31 30 28 26 21 20
30 32 35 35 34 36 36 34 36 38 36 34 33 31 29 28 26 24 24 23 24 23
31 31 30 30 31 29 30 33 32 33 31 29 28 25 24 21 20 21 21 23 25 26
29 26 25 24 26 27 26 23 22 23 22 20 17 19 20 20 22 22 22 21 21 20
19 18 20 22 21 21 21 20 19 18 15 17 21 22 20 21 25 27 25 21 18 15
12 14 15 16 16 19 20 22 21 22 20 21 22 19 17 19 24 25 23 19 15 10

GFSNIL_925_spd_057.txt.gz
Wind_Speed
32 36 37 38 35 37 37 37 36 40 39 39 37 34 32 32 29 24 25 26 27 31
35 34 34 33 33 34 35 35 38 41 40 38 40 37 32 30 32 28 26 27 31 31
36 34 33 32 34 35 35 35 35 41 41 39 38 39 35 29 29 31 32 34 34 35
37 38 36 36 35 36 34 33 34 33 32 33 35 35 31 32 31 32 35 32 31 29
33 35 36 39 41 39 39 34 35 34 37 41 39 38 37 32 33 32 33 33 32 32
36 36 41 48 48 38 40 41 35 35 36 36 38 39 41 38 37 36 34 34 35 34
38 44 43 37 35 39 40 38 41 41 38 36 37 39 43 43 41 37 36 35 32 36
41 37 36 35 36 38 38 38 37 36 37 37 34 35 35 36 38 36 36 35 34 38
30 30 33 34 35 33 35 34 34 35 34 32 36 38 39 36 36 39 36 32 32 31
29 30 31 30 30 33 34 32 33 33 32 35 35 38 40 36 37 33 33 32 29 25
27 27 24 24 28 29 28 28 30 32 35 35 35 39 37 32 34 30 27 27 28 29
25 24 24 26 25 22 25 29 31 31 31 31 31 28 25 31 27 22 23 25 27 30
18 18 17 18 21 24 24 22 18 17 18 20 19 18 29 30 28 28 26 23 23 25
16 16 17 17 16 15 14 14 13 14 12 13 19 26 23 24 29 32 29 27 25 21

GFSNIL_925_spd_060.txt.gz
Wind_Speed
34 33 36 37 32 32 33 33 37 41 32 34 39 37 31 30 27 24 23 23 24 22
33 33 36 38 35 35 33 33 37 39 34 31 30 35 31 32 32 29 26 28 27 25
36 35 35 36 40 39 38 36 32 34 36 36 32 32 32 33 34 33 32 31 31 29
35 35 35 36 39 39 39 38 39 37 37 37 38 37 36 36 35 35 35 34 34 32
34 34 36 37 38 37 39 42 42 41 41 41 40 39 38 38 38 36 35 33 28 27
36 37 40 40 40 37 38 38 39 40 42 44 45 43 41 42 40 38 36 32 27 27
38 40 40 38 38 39 39 37 38 39 41 40 39 40 41 40 38 37 38 40 43 42
37 35 35 35 35 35 34 37 38 38 38 38 36 36 35 34 32 31 33 35 37 42
34 34 35 35 34 33 34 34 35 35 36 36 37 38 41 39 34 32 32 34 36 38
32 33 33 31 32 34 34 32 35 35 34 35 35 36 38 39 38 34 36 36 33 34
30 30 29 29 31 30 29 30 30 31 31 31 33 35 37 38 42 41 36 34 36 34
27 26 27 28 28 27 26 25 25 24 27 29 29 32 36 37 35 30 24 23 25 27
24 25 26 25 23 22 22 19 20 21 22 25 26 26 23 24 27 23 20 18 18 22
17 19 19 17 16 17 19 17 13 11 6 6 6 8 15 22 22 23 22 22 23 24

GFSNIL_925_spd_063.txt.gz
Wind_Speed
33 30 33 34 35 35 37 37 31 32 33 34 37 35 32 30 30 26 24 20 20 23
32 31 32 34 33 35 36 34 33 34 34 34 35 37 37 31 31 28 27 29 27 28
33 33 31 31 32 35 38 35 32 34 34 37 37 37 35 33 33 31 29 31 30 32
32 34 32 33 35 38 37 37 36 34 34 35 37 39 37 35 33 33 34 34 35 36
33 36 35 36 35 35 37 38 39 37 36 38 38 38 39 39 37 37 38 37 37 38
32 34 38 39 37 35 35 37 39 36 40 38 39 38 39 43 43 41 40 40 39 39
34 36 35 34 34 36 36 36 36 40 40 38 39 39 39 40 42 42 42 42 41 41
32 33 34 33 35 35 36 36 38 38 38 40 41 41 42 42 43 42 42 42 41 39
33 34 35 35 36 35 37 38 37 39 39 40 41 44 46 44 38 39 38 37 35 34
32 34 35 34 34 36 37 34 37 38 37 39 39 42 43 43 42 37 34 34 35 37
31 33 33 33 36 36 35 35 35 35 35 35 36 36 38 39 41 38 38 39 39 36
29 30 31 33 35 34 31 32 33 31 30 31 30 29 33 30 34 36 31 34 35 33
27 28 28 27 26 26 27 25 25 21 14 14 17 21 26 28 27 23 15 9 7 9
18 21 22 22 21 21 15 13 10 9 7 4 2 3 6 11 14 15 14 16 18 18

GFSNIL_925_spd_066.txt.gz
Wind_Speed
32 30 30 33 35 32 33 33 36 34 35 36 31 36 36 33 32 30 28 31 33 29
35 34 31 31 33 36 35 32 34 35 39 41 35 36 41 40 40 35 35 36 34 32
33 33 34 34 35 35 36 38 36 34 33 36 40 40 39 37 41 41 39 36 35 33
32 34 33 34 36 37 38 38 40 40 36 37 39 38 40 40 38 39 37 37 35 35
33 34 35 35 36 38 38 39 41 41 40 41 40 40 41 39 38 39 38 39 38 38
33 35 37 37 38 38 37 37 40 42 43 41 39 39 42 43 42 43 43 41 40 40
35 37 38 38 36 39 38 37 40 43 44 43 43 44 45 45 45 45 45 45 43 42
31 33 34 37 39 39 39 39 40 40 43 42 45 44 45 45 42 42 42 42 44 45
30 31 36 36 34 36 38 40 38 41 40 42 45 43 45 44 39 40 39 39 40 41
29 31 33 33 33 37 38 36 40 40 39 42 42 45 47 47 46 39 38 38 37 36
27 30 30 30 35 35 34 34 35 36 36 34 36 37 37 40 41 43 39 38 38 36
28 29 28 29 32 32 30 30 32 30 31 33 34 33 38 37 40 39 31 34 33 33
36 28 31 31 32 30 30 30 27 22 15 13 14 12 19 26 29 26 19 11 7 2
29 24 16 13 16 23 21 19 15 14 11 7 4 3 4 1 12 17 16 16 18 17

GFSNIL_925_spd_069.txt.gz
Wind_Speed
28 31 30 34 32 31 30 30 32 36 37 36 33 31 34 29 31 30 30 25 29 29
31 28 30 32 34 35 31 30 32 36 36 36 37 37 33 30 32 31 32 34 38 34
31 31 30 28 34 34 35 35 33 35 36 35 36 38 37 36 37 37 38 37 40 42
29 33 30 30 31 34 35 37 38 39 38 36 39 41 40 39 35 35 38 39 37 41
29 30 33 33 31 34 35 38 39 38 39 41 39 40 40 40 37 38 38 39 38 39
33 32 33 32 31 35 36 36 37 39 41 40 41 41 42 42 42 43 42 41 40 44
36 36 36 33 34 34 36 36 38 42 41 42 41 42 42 42 43 43 45 44 43 44
39 39 37 37 36 35 39 38 38 38 40 41 43 44 44 44 44 43 43 43 44 45
33 35 38 38 39 40 38 39 38 40 40 39 42 45 47 43 38 39 40 43 43 43
21 34 37 37 38 39 39 36 41 41 37 38 40 44 46 49 49 42 44 43 39 38
27 23 16 32 37 37 36 39 40 40 40 37 40 40 44 50 49 47 43 38 37 39
25 24 23 20 31 38 36 36 35 34 34 37 36 35 39 42 43 41 37 39 33 33
21 21 21 24 24 23 34 31 26 26 20 20 21 16 25 33 29 28 24 16 12 9
22 19 23 23 26 20 2 16 17 17 11 7 2 3 7 12 20 21 15 13 15 13

GFSNIL_925_spd_072.txt.gz
Wind_Speed
28 26 29 32 27 30 31 35 35 38 36 36 35 35 36 39 40 32 30 31 31 32
29 30 30 31 31 30 28 30 32 39 41 39 37 35 32 32 32 33 33 34 34 34
26 27 29 32 35 33 33 31 31 34 38 41 40 38 36 34 37 36 37 38 38 37
29 27 25 30 34 36 36 37 35 36 38 38 40 42 41 39 38 38 38 39 38 40
31 30 30 27 29 34 34 36 39 37 37 38 38 36 36 36 34 37 38 38 37 41
31 31 31 31 30 30 33 33 35 38 38 38 39 40 40 38 37 36 35 36 37 40
32 36 35 34 34 34 33 34 34 37 37 38 39 39 39 39 40 41 42 42 44 43
22 26 27 28 31 35 36 35 35 35 35 36 39 41 41 40 39 40 40 40 43 43
18 27 29 30 32 34 35 35 36 37 36 37 40 42 43 41 38 39 39 41 43 42
18 13 9 23 30 33 33 33 37 38 38 38 40 43 43 45 47 41 40 41 40 38
22 20 18 14 12 24 31 34 36 37 38 37 41 42 45 47 48 46 44 40 38 39
18 18 19 18 19 18 18 23 35 32 32 34 35 31 38 44 48 42 43 41 43 46
17 15 17 17 20 20 15 8 3 5 7 8 4 6 17 30 29 34 34 30 22 22
20 17 17 15 17 16 14 18 23 25 27 30 29 25 12 11 16 14 8 14 15 12

GFSNIL_925_spd_075.txt.gz
Wind_Speed
25 23 23 22 20 22 22 23 32 31 31 32 39 41 33 33 34 31 25 27 27 27
26 25 23 22 23 22 22 25 27 31 30 30 35 35 29 29 32 33 33 35 35 36
25 25 24 23 26 27 26 25 28 30 30 30 31 39 36 33 34 39 39 41 39 42
24 23 24 24 24 26 26 26 25 29 32 33 33 33 35 33 30 36 36 40 43 44
18 21 20 22 24 26 29 29 31 30 32 33 34 36 37 37 33 39 37 39 39 42
20 23 23 23 24 24 27 30 33 35 35 35 35 36 36 37 37 36 38 38 38 40
21 26 28 27 28 29 29 30 31 33 34 35 37 36 37 38 38 37 37 36 38 38
19 22 24 25 28 31 31 31 33 32 34 35 35 34 35 36 36 37 37 37 41 42
9 1 17 24 28 30 31 32 33 33 33 33 36 37 40 40 36 36 37 38 40 41
13 10 8 7 5 13 22 28 31 33 33 35 36 37 39 41 44 38 37 38 39 39
14 13 13 12 12 12 13 12 18 28 30 32 33 29 38 44 47 44 43 43 41 39
16 15 15 15 15 15 15 14 12 7 4 4 5 12 22 32 38 39 42 44 34 34
16 15 15 15 15 14 13 13 13 18 21 22 19 28 22 14 16 16 16 2 8 9
18 17 18 18 21 19 20 20 22 24 26 28 29 29 25 18 9 15 23 26 28 30

GFSNIL_925_spd_078.txt.gz
Wind_Speed
19 18 16 18 18 19 19 22 20 30 37 34 34 34 33 29 30 28 25 27 27 28
19 18 16 14 15 16 18 20 19 22 26 30 38 39 34 33 32 28 26 32 29 27
15 17 16 16 16 14 15 15 17 18 25 29 31 33 37 39 36 37 36 35 32 32
13 16 17 16 16 17 16 16 17 20 21 26 28 30 32 31 32 37 36 35 33 35
13 15 17 18 17 16 18 20 22 22 24 27 28 29 32 34 29 30 32 34 35 37
13 15 18 18 16 16 16 18 22 25 25 26 28 29 31 33 33 31 34 35 36 38
13 14 18 18 17 17 18 19 20 23 27 29 31 32 32 33 35 32 32 35 38 37
5 11 15 18 20 20 20 21 22 23 25 27 28 30 31 33 33 34 35 36 38 38
9 8 6 4 9 17 22 25 26 26 28 29 29 29 31 34 34 35 34 35 36 39
13 13 11 8 5 5 4 4 7 17 26 29 22 24 32 36 39 34 32 33 34 34
16 14 14 14 13 12 10 9 9 9 9 4 4 12 13 23 34 36 34 34 29 25
16 16 16 16 16 14 12 14 17 18 17 13 18 18 14 13 13 14 7 2 8 12
16 16 16 15 16 16 18 19 20 24 26 25 25 26 19 12 5 8 12 18 20 27
20 21 19 21 21 20 21 23 25 27 28 30 31 31 27 21 21 20 25 26 27 30

GFSNIL_925_spd_081.txt.gz
Wind_Speed
15 13 14 12 11 13 14 15 23 27 28 30 32 32 32 31 31 34 33 31 31 31
15 13 13 11 11 12 14 14 18 25 31 35 33 33 31 30 28 30 31 29 28 28
16 15 13 12 11 10 11 12 14 20 26 31 33 33 36 36 28 29 30 30 28 28
17 18 16 15 13 12 11 12 12 17 22 26 34 35 32 31 32 31 31 28 31 31
14 16 17 15 16 16 16 13 14 15 18 22 28 32 34 35 33 36 35 37 34 35
11 11 15 13 13 14 14 13 13 15 17 18 20 25 29 30 31 33 34 33 33 35
8 7 9 10 10 10 12 12 14 15 17 17 16 18 21 28 30 31 33 33 34 35
5 4 4 8 9 9 10 11 12 14 15 17 19 24 27 27 29 31 31 32 33 34
13 12 12 9 6 5 4 5 9 13 16 18 16 21 26 29 26 28 29 30 31 33
16 15 13 11 11 11 9 6 8 9 6 9 2 4 15 26 29 24 21 25 25 24
18 16 14 15 15 14 14 15 15 14 13 11 15 10 7 8 17 14 8 5 6 7
17 16 15 18 19 17 18 21 24 23 22 21 23 18 8 5 4 10 15 17 18 13
19 18 18 19 20 20 23 23 24 29 30 27 31 27 19 14 15 20 21 22 23 26
20 20 19 20 20 21 23 24 23 26 27 29 30 31 28 22 21 21 23 24 26 28

GFSNIL_925_spd_084.txt.gz
Wind_Speed
16 14 14 14 12 12 14 19 20 18 19 23 26 29 28 28 24 23 24 24 25 22
17 15 14 15 13 11 10 12 19 22 24 25 25 26 27 25 28 27 24 26 25 25
17 16 15 14 13 11 10 11 13 20 24 28 30 32 30 29 26 28 32 32 28 21
16 15 14 13 12 12 12 12 13 14 23 28 31 31 34 31 32 28 23 26 29 26
17 15 13 13 12 12 12 12 12 14 21 24 29 32 31 32 30 31 28 25 25 27
14 13 12 11 10 10 10 10 11 12 14 21 26 23 32 33 32 31 32 32 32 34
12 11 11 11 9 10 10 10 9 11 12 13 14 19 27 30 30 31 32 33 33 34
14 12 10 8 8 8 9 9 9 10 11 12 12 11 15 20 22 23 25 27 27 28
15 16 15 13 11 11 9 7 8 7 8 7 6 10 18 20 14 16 20 23 25 26
17 16 16 16 15 16 15 14 15 13 11 8 2 3 12 18 17 15 9 4 8 9
20 19 16 19 19 19 19 19 18 17 15 13 15 7 2 3 6 7 9 8 6 6
22 20 17 22 23 21 24 25 23 22 21 20 22 17 13 11 16 19 20 21 19 14
21 28 24 19 21 22 23 23 23 27 23 25 25 23 19 17 19 23 24 25 26 26
21 21 20 19 18 21 21 21 21 22 23 27 26 26 24 21 19 20 21 22 23 24

GFSNIL_925_spd_087.txt.gz
Wind_Speed
17 16 13 15 14 13 11 10 9 11 18 20 26 31 32 33 35 27 26 24 22 18
18 15 15 15 14 13 12 12 15 11 16 21 24 26 31 26 24 21 18 17 23 21
17 15 15 15 14 14 12 14 15 18 15 18 22 24 27 27 23 24 23 20 18 21
17 16 15 15 14 12 10 11 12 17 20 21 22 24 25 26 28 28 25 23 23 26
16 15 16 14 11 10 10 10 12 13 17 22 25 27 28 25 26 27 27 25 23 21
18 15 14 12 9 13 13 9 9 11 12 15 22 26 28 26 23 30 27 23 21 22
13 15 15 11 7 9 9 8 9 8 9 11 15 20 24 25 23 23 22 25 25 24
13 13 13 10 6 12 10 7 6 9 8 9 10 9 13 17 22 21 23 24 27 27
16 17 17 16 16 19 16 15 14 13 11 10 7 5 12 12 6 9 14 14 13 6
20 22 20 18 19 19 18 15 16 14 12 13 9 5 2 10 6 4 2 3 1 3
23 23 23 26 24 23 21 21 21 19 18 19 22 14 7 6 9 12 12 9 6 5
21 25 27 28 24 24 28 26 28 26 24 24 22 18 15 14 19 22 23 22 19 14
23 24 32 34 22 24 29 27 29 28 27 26 28 24 20 20 22 26 25 26 27 27
26 26 30 32 20 19 25 28 25 23 25 27 25 24 22 19 19 20 20 22 24 25

GFSNIL_925_spd_090.txt.gz
Wind_Speed
19 17 16 20 18 17 13 12 11 10 10 15 24 31 34 34 34 40 37 34 33 31
20 19 15 18 18 17 14 13 11 8 9 10 18 24 28 27 35 38 36 33 31 27
17 16 15 19 16 17 15 14 13 10 10 13 15 20 23 24 26 32 33 29 30 24
16 17 16 18 17 16 14 15 12 13 13 13 17 19 22 23 26 27 27 26 21 17
13 15 16 16 14 14 14 14 13 14 16 13 16 18 21 22 20 19 18 19 17 17
12 17 15 15 14 13 14 12 13 14 13 15 17 20 21 20 21 19 20 23 25 24
16 16 15 12 11 13 14 13 13 11 11 11 14 16 19 20 17 19 22 24 22 23
15 15 16 13 16 19 16 13 13 14 16 14 14 13 15 18 20 20 21 22 24 20
20 20 19 17 20 20 19 18 18 17 15 13 10 7 12 12 13 15 14 11 10 12
20 21 19 19 22 23 23 22 22 20 18 18 15 11 11 14 14 15 13 11 9 7
24 24 22 21 24 24 24 26 25 24 22 22 20 16 15 15 17 18 16 12 10 8
26 27 26 25 24 24 28 30 31 29 28 27 24 19 19 21 24 26 27 24 20 18
26 30 30 28 25 25 30 30 34 33 32 31 30 25 23 24 26 30 30 30 32 28
27 33 30 27 24 22 22 33 35 33 32 32 32 28 23 25 27 25 26 27 28 27

GFSNIL_925_spd_093.txt.gz
Wind_Speed
31 28 27 31 29 28 24 20 20 20 20 23 28 25 31 33 37 36 38 38 33 30
28 23 29 26 25 21 19 19 18 15 13 12 16 22 28 29 28 36 36 38 37 31
24 24 23 24 23 20 19 19 16 13 13 12 11 15 24 24 28 34 38 38 37 34
24 23 23 21 19 22 19 19 17 16 14 13 10 11 16 20 25 27 28 35 33 31
26 23 20 16 17 21 21 20 15 15 13 11 11 12 16 17 20 30 26 29 32 27
23 17 18 18 15 16 18 17 14 14 15 12 13 14 16 17 18 21 27 27 30 26
18 18 18 15 13 15 15 15 15 15 14 12 13 13 13 13 15 15 14 14 14 18
21 19 18 16 17 19 18 17 17 17 15 14 13 12 13 13 12 12 11 11 12 12
22 21 18 19 21 21 19 19 19 18 16 14 10 11 14 16 15 14 14 15 14 12
18 19 21 19 20 21 21 19 19 17 17 17 15 13 15 17 19 18 18 18 17 13
26 21 21 23 22 22 22 22 22 21 19 19 18 17 20 22 23 23 19 16 14 15
29 29 26 25 27 25 28 28 28 26 25 22 20 19 21 24 27 27 26 22 19 19
33 34 29 25 25 29 32 32 31 34 32 29 26 21 24 24 32 35 33 33 31 26
30 34 33 28 25 28 31 35 35 36 34 34 30 28 26 25 22 30 31 29 28 30

GFSNIL_925_spd_096.txt.gz
Wind_Speed
33 33 31 33 32 32 26 24 28 25 23 20 22 25 27 29 31 36 37 35 29 31
33 32 31 30 29 30 28 27 25 21 20 25 27 27 24 30 34 28 37 37 35 32
35 32 28 28 29 29 26 23 19 17 18 18 18 19 23 29 28 28 33 34 36 35
29 28 27 29 29 26 22 19 17 16 17 18 15 16 18 22 24 23 27 31 34 33
23 26 27 26 24 20 18 18 17 18 17 17 14 11 14 15 16 20 23 33 35 32
23 27 24 20 20 20 20 20 17 17 16 14 10 11 12 12 12 19 23 19 29 32
23 22 22 19 16 17 18 18 16 14 14 11 11 11 10 10 7 10 16 22 24 28
26 25 23 21 18 18 17 17 15 15 12 10 10 11 10 8 9 11 11 12 17 19
23 22 22 24 22 20 19 18 17 14 10 7 3 7 10 11 12 12 15 16 15 13
23 23 21 20 23 25 21 20 19 17 14 12 8 3 9 13 14 17 17 18 18 16
27 29 26 27 24 22 22 22 21 19 17 16 15 10 12 16 16 16 15 14 14 16
29 33 28 34 26 23 27 27 27 24 21 20 19 16 16 18 21 21 19 16 14 14
28 29 32 32 28 29 31 28 30 32 30 26 25 20 20 21 26 31 29 27 23 21
34 29 30 30 31 34 32 32 30 30 31 32 30 27 26 25 28 28 28 28 28 29

GFSNIL_925_spd_102.txt.gz
Wind_Speed
28 28 28 28 25 26 29 33 38 35 32 28 27 27 27 26 28 27 27 26 26 29
27 28 29 31 33 33 32 32 34 34 29 26 26 23 24 27 26 25 26 28 28 29
23 25 26 29 30 30 30 31 31 29 27 25 24 22 23 22 22 21 24 26 25 26
21 22 22 24 25 27 27 28 29 28 27 25 23 22 19 17 17 18 22 22 21 26
18 16 18 22 23 24 23 25 22 22 22 22 19 15 14 15 15 15 21 27 28 28
13 16 14 18 18 19 24 25 22 22 21 19 16 15 12 11 11 15 22 19 19 21
18 8 19 19 22 24 26 25 21 20 17 15 13 11 9 9 10 13 13 13 14 19
22 16 14 16 26 25 26 23 21 21 19 17 13 11 10 9 6 7 4 3 4 4
30 29 22 17 24 24 24 23 22 19 15 12 8 9 11 9 10 7 5 7 7 4
31 34 35 27 24 24 24 22 21 17 14 10 6 6 11 14 12 10 9 10 10 11
25 31 34 36 28 29 29 27 24 21 17 15 14 10 14 16 17 16 14 13 13 13
31 29 38 34 27 31 35 35 32 28 26 25 20 12 13 18 22 24 22 19 16 14
32 34 34 34 29 27 35 34 33 33 32 31 31 22 15 20 26 31 29 29 28 21
33 34 33 34 35 32 31 35 32 33 34 35 32 28 23 27 28 27 28 28 28 29

GFSNIL_925_spd_105.txt.gz
Wind_Speed
31 29 31 31 28 28 29 32 33 38 36 35 35 29 27 25 25 28 28 28 26 24
27 29 27 28 27 26 27 28 31 36 32 31 30 30 28 27 24 21 25 26 26 26
21 28 28 27 27 27 30 28 31 33 32 30 28 28 25 23 21 24 22 24 26 27
15 19 22 26 25 27 27 29 32 31 31 29 24 21 22 17 18 20 21 22 25 28
8 18 20 22 23 25 26 28 29 31 31 28 26 22 19 19 20 19 16 15 18 21
15 2 10 15 18 20 24 28 28 29 30 27 21 20 18 16 13 12 12 13 14 18
19 16 7 9 16 22 23 26 27 28 29 26 19 16 15 14 11 10 11 12 14 14
24 20 16 11 5 16 23 23 26 28 24 24 17 16 15 12 11 12 10 7 7 8
27 27 28 23 21 17 29 30 28 28 29 21 12 14 16 14 15 13 9 6 4 1
28 29 31 33 32 27 31 29 26 29 27 19 10 5 13 16 16 13 10 7 4 6
30 28 30 35 35 39 33 28 31 32 27 24 18 12 15 16 15 16 13 10 8 9
33 31 29 34 33 37 34 28 33 33 33 31 26 19 19 19 20 21 20 17 14 12
32 31 34 35 31 31 40 33 29 36 36 34 32 23 19 22 26 26 24 26 26 21
33 33 32 30 32 33 33 27 33 37 37 39 36 32 27 25 26 28 26 24 27 27

GFSNIL_925_spd_108.txt.gz
Wind_Speed
28 30 35 35 30 28 27 28 30 35 35 37 37 34 33 28 27 27 26 23 23 21
30 29 36 37 32 27 25 25 27 33 32 32 35 35 33 28 28 23 24 24 24 23
34 30 34 31 30 27 25 24 24 29 33 31 32 35 31 23 21 22 23 23 22 24
32 21 24 24 26 29 26 28 28 30 33 33 35 36 31 28 22 23 22 19 20 21
21 12 8 16 19 22 24 26 28 30 33 32 31 32 30 26 24 23 20 19 19 17
19 17 13 4 14 19 24 26 29 32 30 31 31 30 27 24 22 19 17 16 16 15
23 19 17 14 6 8 12 18 23 27 28 28 26 26 25 24 23 17 14 13 11 12
23 21 23 14 13 11 8 10 14 18 20 23 23 23 24 22 20 17 14 10 9 9
31 29 27 30 27 22 18 15 22 21 23 24 20 24 22 19 21 16 12 10 6 4
27 31 32 34 37 37 36 30 29 23 24 23 20 19 21 22 24 18 12 8 5 3
34 33 30 31 37 37 37 30 35 32 31 31 27 23 23 25 25 21 16 12 9 6
31 32 32 34 34 29 35 39 39 34 40 31 31 24 27 29 28 26 25 21 16 11
33 34 34 33 33 32 37 36 39 38 39 34 36 33 26 24 27 30 28 28 28 26
34 34 32 33 32 32 32 33 34 36 42 39 39 36 29 28 30 26 26 26 27 26

GFSNIL_925_spd_114.txt.gz
Wind_Speed
25 25 27 28 29 31 34 35 34 31 38 38 37 42 37 36 35 37 37 34 31 29
29 28 29 31 32 34 36 39 39 38 32 35 37 42 40 39 37 33 37 31 32 27
31 30 30 31 34 34 38 40 40 40 34 37 36 38 39 38 38 36 31 35 29 32
29 29 28 29 30 33 37 44 42 41 38 38 36 37 36 36 34 36 33 31 32 29
28 28 26 26 28 30 36 32 40 39 39 40 41 38 37 36 32 34 33 27 28 30
29 31 27 26 28 26 25 22 16 32 35 37 36 35 34 36 33 33 32 33 33 30
30 31 28 25 26 24 26 20 14 15 30 35 34 30 33 30 29 29 30 29 28 26
29 30 31 28 30 31 34 31 22 23 21 9 7 12 24 30 28 29 24 25 25 23
32 32 32 32 34 32 39 43 40 43 36 33 28 7 25 29 24 30 34 29 25 21
29 31 34 34 36 38 35 43 41 41 40 40 40 33 25 26 31 29 25 27 23 19
31 30 33 36 37 37 40 42 35 42 42 43 42 40 39 35 32 33 29 24 17 19
32 34 34 35 35 37 39 41 43 42 46 47 45 42 38 41 30 46 41 35 24 19
34 34 34 35 33 33 35 37 37 43 49 47 45 45 41 46 30 37 36 40 36 31
32 33 33 32 36 33 33 34 36 38 40 38 41 45 44 43 39 35 33 32 34 31

GFSNIL_925_spd_117.txt.gz
Wind_Speed
21 22 24 24 25 29 31 34 36 37 36 36 36 32 39 37 36 34 37 35 32 28
23 23 26 28 29 30 32 35 36 37 38 35 38 34 38 37 35 34 35 35 36 35
29 29 29 30 30 31 34 35 39 39 38 38 35 39 38 38 37 36 34 35 34 35
29 30 30 30 30 30 32 31 35 37 38 39 38 40 37 39 35 37 36 36 34 36
26 27 26 26 28 29 30 29 28 30 37 43 38 37 38 40 37 40 37 37 37 39
26 26 26 26 26 25 26 24 21 22 23 30 34 35 39 39 37 37 39 40 39 39
28 28 27 26 27 27 27 25 23 18 16 8 12 25 35 41 41 40 40 37 42 35
29 28 27 26 26 27 27 28 32 32 27 14 13 6 18 28 36 35 29 25 26 30
29 26 25 28 33 34 35 30 36 42 29 30 33 22 2 9 19 17 20 25 26 26
28 26 29 31 32 33 32 32 36 40 35 42 42 49 39 24 33 37 27 21 18 24
31 30 33 33 33 34 34 35 39 43 42 43 50 50 50 42 44 46 40 32 24 20
33 31 32 34 33 32 34 37 40 41 48 50 53 52 46 47 43 43 44 43 32 25
29 32 33 30 33 31 33 36 38 43 47 47 52 51 48 39 43 36 33 43 37 36
31 31 32 30 31 33 31 34 36 39 42 46 47 49 49 43 40 33 33 34 33 35

GFSNIL_925_spd_120.txt.gz
Wind_Speed
22 19 20 20 23 27 29 32 33 34 32 31 29 29 30 32 28 36 38 37 36 32
21 20 20 23 24 26 28 30 31 33 36 35 32 28 25 29 34 30 39 35 37 37
22 21 23 24 24 26 28 29 31 33 35 35 33 30 28 30 30 32 35 37 34 38
25 25 24 23 24 25 28 28 30 32 34 35 34 32 32 32 32 33 34 36 36 35
25 27 26 26 26 26 26 26 27 31 32 33 34 32 35 37 34 35 34 35 36 35
28 28 28 28 27 26 26 25 25 26 24 26 27 31 35 37 36 37 36 36 36 36
30 28 28 28 29 28 27 26 25 26 22 22 19 23 22 31 33 33 33 35 38 39
27 31 28 29 31 30 29 29 30 26 27 24 26 26 21 22 28 30 27 28 33 37
32 31 33 32 32 31 33 33 33 30 28 33 31 35 18 15 15 14 11 13 9 8
34 34 33 32 31 31 31 34 32 31 35 36 42 37 32 43 37 34 33 26 20 16
33 31 32 31 29 30 31 33 34 38 38 40 45 39 35 51 52 43 46 33 31 24
30 29 29 30 31 30 30 32 35 36 41 41 47 50 45 40 44 44 47 40 38 31
29 29 30 29 27 28 27 29 31 37 41 44 48 56 52 49 45 36 34 37 43 45
30 28 30 29 31 30 29 29 32 34 38 42 46 46 46 43 39 35 38 34 34 41

GFSNIL_925_spd_123.txt.gz
Wind_Speed
21 19 19 17 20 22 22 24 25 25 26 27 26 26 24 23 24 25 30 29 36 34
22 21 21 21 20 21 22 23 24 26 24 25 28 28 28 27 27 24 26 33 30 36
21 21 21 21 21 22 22 24 24 24 25 25 24 25 26 28 27 28 27 26 29 35
21 21 22 21 21 22 23 23 22 23 24 26 26 24 25 27 29 31 29 27 28 33
23 25 23 23 24 25 24 24 22 21 23 23 22 22 24 28 28 28 29 30 29 36
23 26 25 26 27 27 28 27 27 25 25 26 24 24 23 26 30 33 36 34 31 36
24 26 29 29 30 31 31 31 30 29 29 30 29 27 27 27 30 32 33 34 32 34
29 29 29 31 33 34 34 33 33 33 32 33 28 31 33 24 28 31 26 21 19 24
30 32 32 33 31 31 33 35 38 40 34 35 34 36 34 26 17 22 21 11 8 3
30 31 32 33 37 37 37 38 40 40 37 37 44 41 35 37 34 30 35 31 26 23
31 31 34 35 35 36 37 37 36 38 40 40 48 48 40 35 36 35 43 43 36 32
29 32 34 34 33 32 32 34 34 35 40 42 47 53 45 34 32 36 41 44 47 39
30 34 33 30 29 32 32 30 28 31 36 36 41 48 47 40 33 36 35 41 41 44
31 30 30 27 30 32 31 29 30 31 34 37 40 41 43 43 41 35 37 34 35 38

GFSNIL_925_spd_129.txt.gz
Wind_Speed
18 17 16 18 18 18 20 21 22 22 22 21 21 20 20 23 25 24 24 25 23 22
19 20 19 19 18 19 19 21 21 22 23 22 23 23 23 23 24 26 27 26 26 27
19 18 18 17 18 19 19 19 20 22 23 24 23 22 23 23 22 25 26 25 26 27
19 18 19 18 20 20 20 21 20 21 23 24 24 23 24 24 25 24 24 26 28 28
18 18 19 18 19 19 20 21 22 21 20 22 21 22 23 24 23 25 26 27 28 28
18 19 18 19 20 20 20 21 22 21 22 25 24 24 27 25 25 26 27 29 30 28
17 17 16 16 19 21 22 23 23 24 24 26 27 27 27 21 23 22 23 27 28 25
15 15 15 16 18 20 23 26 27 27 27 28 30 33 33 28 28 27 25 23 10 7
15 17 19 20 22 24 25 26 28 30 30 32 36 37 34 32 31 32 33 29 25 25
18 21 25 21 21 22 25 25 28 32 32 33 42 42 35 32 32 32 35 37 34 33
23 22 21 23 24 23 22 22 26 29 32 34 43 43 39 34 33 32 36 41 42 40
22 22 21 24 23 21 20 22 24 28 32 36 38 42 41 36 30 32 35 38 48 46
15 20 19 19 20 18 18 21 23 27 31 32 36 40 40 36 32 33 34 37 42 46
16 18 17 17 19 20 21 22 27 28 30 33 34 36 38 37 34 29 30 33 35 38

GFSNIL_925_spd_132.txt.gz
Wind_Speed
15 15 15 16 17 17 18 19 20 21 21 19 19 19 19 21 23 21 23 24 25 25
15 16 17 16 17 17 17 19 20 20 21 20 20 19 19 20 21 21 24 24 24 28
16 16 16 16 17 18 19 19 20 21 21 21 21 21 20 20 19 21 23 24 25 26
17 17 17 17 18 19 19 20 20 20 21 22 23 22 22 22 23 23 23 23 25 27
15 17 18 18 19 19 19 19 19 20 21 23 24 23 23 22 21 22 24 25 26 27
14 15 16 17 18 19 20 20 20 20 21 23 25 25 25 22 22 22 21 20 25 28
15 15 15 15 16 18 19 20 21 22 23 25 26 25 25 22 24 25 24 22 26 14
13 14 15 16 17 17 18 20 21 23 26 30 31 33 29 24 26 28 32 29 27 23
12 14 16 16 16 17 18 20 23 25 27 32 35 36 32 28 27 30 33 34 31 28
13 15 16 15 15 17 18 19 22 28 30 32 38 37 33 29 26 31 34 37 35 33
14 14 15 16 16 17 18 19 22 25 28 28 35 37 35 28 28 29 33 36 42 37
14 15 16 18 17 16 17 19 22 23 25 29 30 36 35 29 27 30 32 34 39 43
13 14 16 16 16 16 16 18 18 22 25 26 30 35 35 32 28 29 28 31 35 38
12 14 14 15 16 16 17 17 20 21 24 28 30 32 34 33 30 26 25 28 30 34